DELTA 4 R/B, 39169

Orbit data source: Space-Track

DELTA 4 R/B, 39169 is space debris in HEO originally from a launch on Sat, 25 May 2013 UTC launched from the Air Force Eastern Test Range (AFETR). Debris objects in space refer to the collection of defunct objects orbiting the Earth. Examples of debris include non-operational satellites, rocket bodies, and fragments generated from explosions, collisions, or faulty payload assembly.

Not visible in the next 10 days
Identifier
39169, 2013-024B
Orbit
HEO
Country
Flag of USUS
Related business
Flag of USUnited Launch Alliance/Lockheed Martin (US)
Manufacturer
ULA Decatur
Mission
Spacecraft
Bus & Motor
DCSS-5, RL10B-2
Mass
3,450 kg wet, 3,450 kg dry
Launch date (UTC)
2013-05-25 (13 years ago)
Launch vehicle
Unknown
Launch site
Air Force Eastern Test Range (AFETR)
Object type
Payload
Rocket body
Debris
Shape & HBR
Cyl + 1 Nozzle, 6.8 m
Radar Cross Section
64.942 m², Large (>1 m²)

Expand to show TLE details & history
Last TLE update: 1 day ago

TLE from 1 day ago
0 DELTA 4 R/B
1 39169U 13024B   26121.50468115 -.00000412  00000-0  13198-2 0  9992
2 39169  25.0186  45.0805 8245416 357.1813   0.0933  1.10026092 51936
Epoch: 2026-05-01T12:06Z
TLE epoch observation values (Epoch: 2026-05-01T12:06:44.451Z)
Latitude
-0.0075°
Longitude
3.91398°
Altitude
485.011 km
Speed
10.3 km/s
True Right ascension
03h 00m 08s
True Declination
0° 00' 27"
Sunlit
Object was in daylight at epoch
Visualization orbit readout
Latitude
Unknown
Longitude
Unknown
Altitude
Unknown
Speed
Unknown
Apparent Right ascension
Unknown
Apparent Declination
Unknown
Sunlit
N/A
Visualization observer readout
Local Sidereal Time
23:28:29
Azimuth
Unknown
Elevation
Unknown
Doppler factor
Unknown
Orbital elements
Apogee altitude
65,944.559 km
Perigee altitude
576.829 km
Semi-major axis
39,638.831 km
Eccentricity
0.82454
Inclination
25.0186°
RAAN
45.0805°
Arg. of periapsis
357.1813°
True anomaly
1.7145°
Mean anomaly
0.0933°
Eccentric anomaly
0.53171°
Mean motion
0.27502 °/min
Orbital period
1,309 mins
BSTAR
0.0013198
Loading maneuver chart data...
Computing Atmospheric mass density...
Loading historical data...
Loading historical data...
Loading historical data...
Loading historical data...
Loading historical data...
Loading historical data...
Loading historical data...
Other satellites on launch #24 in the year 2013 (2013-05-25 UTC)

Documentation

Showing up to 5 results
|